Find Satcom 5

NORAD ID: 13631 Int'l Des: 1982-105 Owner: AMC Country: US operational
HEOCIRCULARGSO

Current View

Loading 3D Globe...

About Satcom 5

Description loading...

Upcoming Passes

Passes for default location (London). Set your location on the main map for personalized predictions.

Altitude History

Loading altitude history...

Two-Line Element Set

1 13631U 82105A 26151.32606763 -.00000100 00000-0 00000+0 0 9999
2 13631 12.1175 332.6156 0005674 60.4712 227.2696 1.00273776126209
Epoch: May 31, 2026 • Age: 9 hours

Current Status

Altitude 35761.1 km
Velocity 3.08 km/s
Sub-Earth Point 11.21°N, 106.31°W
Launch Date Oct 28, 1982
Age 43.5 years
Type other

Technical Details

Classification Payload
Mass 573.00 kg
Dry Mass 430.00 kg
Total Mass 1116.00 kg
Length 1.80 m
Diameter 1.40 m
Span 14.00 m
Shape Box + 2 Pan
Manufacturer RCA
Bus Type Adv Satcom
Phase Status In Orbit
Owner/State AMC/US

Most Searched